<?xml version="1.0" encoding="UTF-8"?>
<gpx
  version="1.0"
  creator="pymavlink"
  xmlns:xsi="http://www.w3.org/2001/XMLSchema-instance"
  xmlns="http://www.topografix.com/GPX/1/0"
  xsi:schemaLocation="http://www.topografix.com/GPX/1/0 http://www.topografix.com/GPX/1/0/gpx.xsd">
<trk>
<trkseg>
<trkpt lat="40.0713771" lon="-105.2298077">
  <ele>1583.07</ele>
  <time>2026-09-02T20:46:30Z</time>
  <course>293.24</course>
  <speed>0.02</speed>
  <fix>3d</fix>
</trkpt>
<trkpt lat="40.0713772" lon="-105.2298075">
  <ele>1583.0</ele>
  <time>2026-09-02T20:46:30Z</time>
  <course>294.67</course>
  <speed>0.0</speed>
  <fix>3d</fix>
</trkpt>
<trkpt lat="40.0713771" lon="-105.2298077">
  <ele>1583.06</ele>
  <time>2026-09-02T20:46:30Z</time>
  <course>293.24</course>
  <speed>0.02</speed>
  <fix>3d</fix>
</trkpt>
<trkpt lat="40.0713772" lon="-105.2298075">
  <ele>1583.0</ele>
  <time>2026-09-02T20:46:30Z</time>
  <course>294.67</course>
  <speed>0.0</speed>
  <fix>3d</fix>
</trkpt>
<trkpt lat="40.0713771" lon="-105.2298077">
  <ele>1583.05</ele>
  <time>2026-09-02T20:46:30Z</time>
  <course>293.24</course>
  <speed>0.02</speed>
  <fix>3d</fix>
</trkpt>
<trkpt lat="40.0713772" lon="-105.2298076">
  <ele>1583.0</ele>
  <time>2026-09-02T20:46:30Z</time>
  <course>294.75</course>
  <speed>0.0</speed>
  <fix>3d</fix>
</trkpt>
<trkpt lat="40.0713771" lon="-105.2298077">
  <ele>1583.05</ele>
  <time>2026-09-02T20:46:30Z</time>
  <course>293.24</course>
  <speed>0.02</speed>
  <fix>3d</fix>
</trkpt>
<trkpt lat="40.0713772" lon="-105.2298076">
  <ele>1583.0</ele>
  <time>2026-09-02T20:46:30Z</time>
  <course>294.75</course>
  <speed>0.0</speed>
  <fix>3d</fix>
</trkpt>
<trkpt lat="40.0713771" lon="-105.2298077">
  <ele>1583.04</ele>
  <time>2026-09-02T20:46:30Z</time>
  <course>293.24</course>
  <speed>0.02</speed>
  <fix>3d</fix>
</trkpt>
<trkpt lat="40.0713772" lon="-105.2298076">
  <ele>1583.0</ele>
  <time>2026-09-02T20:46:30Z</time>
  <course>294.84</course>
  <speed>0.0</speed>
  <fix>3d</fix>
</trkpt>
<trkpt lat="40.0713771" lon="-105.2298077">
  <ele>1583.03</ele>
  <time>2026-09-02T20:46:30Z</time>
  <course>293.23</course>
  <speed>0.02</speed>
  <fix>3d</fix>
</trkpt>
<trkpt lat="40.0713772" lon="-105.2298076">
  <ele>1583.0</ele>
  <time>2026-09-02T20:46:30Z</time>
  <course>294.84</course>
  <speed>0.0</speed>
  <fix>3d</fix>
</trkpt>
<trkpt lat="40.0713771" lon="-105.2298078">
  <ele>1583.03</ele>
  <time>2026-09-02T20:46:30Z</time>
  <course>293.23</course>
  <speed>0.02</speed>
  <fix>3d</fix>
</trkpt>
<trkpt lat="40.0713772" lon="-105.2298076">
  <ele>1583.0</ele>
  <time>2026-09-02T20:46:30Z</time>
  <course>294.93</course>
  <speed>0.0</speed>
  <fix>3d</fix>
</trkpt>
<trkpt lat="40.0713771" lon="-105.2298078">
  <ele>1583.02</ele>
  <time>2026-09-02T20:46:30Z</time>
  <course>293.23</course>
  <speed>0.02</speed>
  <fix>3d</fix>
</trkpt>
<trkpt lat="40.0713772" lon="-105.2298076">
  <ele>1583.0</ele>
  <time>2026-09-02T20:46:30Z</time>
  <course>294.93</course>
  <speed>0.0</speed>
  <fix>3d</fix>
</trkpt>
<trkpt lat="40.0713771" lon="-105.2298078">
  <ele>1583.01</ele>
  <time>2026-09-02T20:46:30Z</time>
  <course>293.23</course>
  <speed>0.02</speed>
  <fix>3d</fix>
</trkpt>
<trkpt lat="40.0713772" lon="-105.2298076">
  <ele>1583.0</ele>
  <time>2026-09-02T20:46:30Z</time>
  <course>295.03</course>
  <speed>0.0</speed>
  <fix>3d</fix>
</trkpt>
<trkpt lat="40.0713771" lon="-105.2298078">
  <ele>1583.01</ele>
  <time>2026-09-02T20:46:30Z</time>
  <course>293.22</course>
  <speed>0.02</speed>
  <fix>3d</fix>
</trkpt>
<trkpt lat="40.0713772" lon="-105.2298076">
  <ele>1583.0</ele>
  <time>2026-09-02T20:46:30Z</time>
  <course>295.03</course>
  <speed>0.0</speed>
  <fix>3d</fix>
</trkpt>
<trkpt lat="40.0713771" lon="-105.2298078">
  <ele>1583.01</ele>
  <time>2026-09-02T20:46:30Z</time>
  <course>293.22</course>
  <speed>0.02</speed>
  <fix>3d</fix>
</trkpt>
<trkpt lat="40.0713772" lon="-105.2298076">
  <ele>1583.0</ele>
  <time>2026-09-02T20:46:30Z</time>
  <course>295.15</course>
  <speed>0.0</speed>
  <fix>3d</fix>
</trkpt>
<trkpt lat="40.0713771" lon="-105.2298078">
  <ele>1583.01</ele>
  <time>2026-09-02T20:46:30Z</time>
  <course>293.22</course>
  <speed>0.02</speed>
  <fix>3d</fix>
</trkpt>
<trkpt lat="40.0713772" lon="-105.2298076">
  <ele>1583.0</ele>
  <time>2026-09-02T20:46:30Z</time>
  <course>295.15</course>
  <speed>0.0</speed>
  <fix>3d</fix>
</trkpt>
<trkpt lat="40.0713771" lon="-105.2298078">
  <ele>1583.01</ele>
  <time>2026-09-02T20:46:30Z</time>
  <course>293.22</course>
  <speed>0.02</speed>
  <fix>3d</fix>
</trkpt>
<trkpt lat="40.0713772" lon="-105.2298076">
  <ele>1583.0</ele>
  <time>2026-09-02T20:46:30Z</time>
  <course>295.28</course>
  <speed>0.0</speed>
  <fix>3d</fix>
</trkpt>
<trkpt lat="40.0713771" lon="-105.2298078">
  <ele>1583.01</ele>
  <time>2026-09-02T20:46:30Z</time>
  <course>293.21</course>
  <speed>0.02</speed>
  <fix>3d</fix>
</trkpt>
<trkpt lat="40.0713772" lon="-105.2298076">
  <ele>1583.0</ele>
  <time>2026-09-02T20:46:30Z</time>
  <course>295.28</course>
  <speed>0.0</speed>
  <fix>3d</fix>
</trkpt>
<trkpt lat="40.0713771" lon="-105.2298078">
  <ele>1583.01</ele>
  <time>2026-09-02T20:46:30Z</time>
  <course>293.21</course>
  <speed>0.02</speed>
  <fix>3d</fix>
</trkpt>
<trkpt lat="40.0713772" lon="-105.2298076">
  <ele>1583.0</ele>
  <time>2026-09-02T20:46:30Z</time>
  <course>295.42</course>
  <speed>0.0</speed>
  <fix>3d</fix>
</trkpt>
<trkpt lat="40.0713771" lon="-105.2298078">
  <ele>1583.01</ele>
  <time>2026-09-02T20:46:30Z</time>
  <course>293.21</course>
  <speed>0.02</speed>
  <fix>3d</fix>
</trkpt>
<trkpt lat="40.0713772" lon="-105.2298076">
  <ele>1583.0</ele>
  <time>2026-09-02T20:46:30Z</time>
  <course>295.42</course>
  <speed>0.0</speed>
  <fix>3d</fix>
</trkpt>
<trkpt lat="40.0713771" lon="-105.2298078">
  <ele>1583.01</ele>
  <time>2026-09-02T20:46:30Z</time>
  <course>293.21</course>
  <speed>0.02</speed>
  <fix>3d</fix>
</trkpt>
<trkpt lat="40.0713772" lon="-105.2298076">
  <ele>1583.0</ele>
  <time>2026-09-02T20:46:30Z</time>
  <course>295.57</course>
  <speed>0.0</speed>
  <fix>3d</fix>
</trkpt>
<trkpt lat="40.0713771" lon="-105.2298078">
  <ele>1583.0</ele>
  <time>2026-09-02T20:46:30Z</time>
  <course>293.2</course>
  <speed>0.02</speed>
  <fix>3d</fix>
</trkpt>
<trkpt lat="40.0713772" lon="-105.2298076">
  <ele>1583.0</ele>
  <time>2026-09-02T20:46:30Z</time>
  <course>295.57</course>
  <speed>0.0</speed>
  <fix>3d</fix>
</trkpt>
<trkpt lat="40.0713771" lon="-105.2298078">
  <ele>1583.0</ele>
  <time>2026-09-02T20:46:30Z</time>
  <course>293.2</course>
  <speed>0.02</speed>
  <fix>3d</fix>
</trkpt>
<trkpt lat="40.0713772" lon="-105.2298076">
  <ele>1583.0</ele>
  <time>2026-09-02T20:46:30Z</time>
  <course>295.74</course>
  <speed>0.0</speed>
  <fix>3d</fix>
</trkpt>
<trkpt lat="40.0713771" lon="-105.2298078">
  <ele>1583.0</ele>
  <time>2026-09-02T20:46:30Z</time>
  <course>293.2</course>
  <speed>0.02</speed>
  <fix>3d</fix>
</trkpt>
<trkpt lat="40.0713772" lon="-105.2298076">
  <ele>1583.0</ele>
  <time>2026-09-02T20:46:30Z</time>
  <course>295.74</course>
  <speed>0.0</speed>
  <fix>3d</fix>
</trkpt>
<trkpt lat="40.0713771" lon="-105.2298078">
  <ele>1583.0</ele>
  <time>2026-09-02T20:46:30Z</time>
  <course>293.2</course>
  <speed>0.02</speed>
  <fix>3d</fix>
</trkpt>
<trkpt lat="40.0713772" lon="-105.2298076">
  <ele>1583.0</ele>
  <time>2026-09-02T20:46:30Z</time>
  <course>295.93</course>
  <speed>0.0</speed>
  <fix>3d</fix>
</trkpt>
<trkpt lat="40.0713771" lon="-105.2298078">
  <ele>1582.99</ele>
  <time>2026-09-02T20:46:30Z</time>
  <course>293.19</course>
  <speed>0.02</speed>
  <fix>3d</fix>
</trkpt>
<trkpt lat="40.0713772" lon="-105.2298076">
  <ele>1583.0</ele>
  <time>2026-09-02T20:46:30Z</time>
  <course>295.93</course>
  <speed>0.0</speed>
  <fix>3d</fix>
</trkpt>
<trkpt lat="40.0713771" lon="-105.2298078">
  <ele>1582.98</ele>
  <time>2026-09-02T20:46:30Z</time>
  <course>293.19</course>
  <speed>0.02</speed>
  <fix>3d</fix>
</trkpt>
<trkpt lat="40.0713772" lon="-105.2298076">
  <ele>1583.0</ele>
  <time>2026-09-02T20:46:30Z</time>
  <course>296.14</course>
  <speed>0.0</speed>
  <fix>3d</fix>
</trkpt>
<trkpt lat="40.0713771" lon="-105.2298078">
  <ele>1582.98</ele>
  <time>2026-09-02T20:46:30Z</time>
  <course>293.19</course>
  <speed>0.02</speed>
  <fix>3d</fix>
</trkpt>
<trkpt lat="40.0713772" lon="-105.2298076">
  <ele>1583.0</ele>
  <time>2026-09-02T20:46:30Z</time>
  <course>296.14</course>
  <speed>0.0</speed>
  <fix>3d</fix>
</trkpt>
<trkpt lat="40.0713771" lon="-105.2298078">
  <ele>1582.97</ele>
  <time>2026-09-02T20:46:30Z</time>
  <course>293.19</course>
  <speed>0.02</speed>
  <fix>3d</fix>
</trkpt>
<trkpt lat="40.0713772" lon="-105.2298076">
  <ele>1583.0</ele>
  <time>2026-09-02T20:46:30Z</time>
  <course>296.37</course>
  <speed>0.0</speed>
  <fix>3d</fix>
</trkpt>
<trkpt lat="40.0713771" lon="-105.2298078">
  <ele>1582.96</ele>
  <time>2026-09-02T20:46:30Z</time>
  <course>293.18</course>
  <speed>0.02</speed>
  <fix>3d</fix>
</trkpt>
<trkpt lat="40.0713772" lon="-105.2298076">
  <ele>1583.0</ele>
  <time>2026-09-02T20:46:30Z</time>
  <course>296.37</course>
  <speed>0.0</speed>
  <fix>3d</fix>
</trkpt>
<trkpt lat="40.0713771" lon="-105.2298078">
  <ele>1582.96</ele>
  <time>2026-09-02T20:46:30Z</time>
  <course>293.18</course>
  <speed>0.02</speed>
  <fix>3d</fix>
</trkpt>
<trkpt lat="40.0713772" lon="-105.2298076">
  <ele>1583.0</ele>
  <time>2026-09-02T20:46:30Z</time>
  <course>296.63</course>
  <speed>0.0</speed>
  <fix>3d</fix>
</trkpt>
<trkpt lat="40.0713771" lon="-105.2298078">
  <ele>1582.95</ele>
  <time>2026-09-02T20:46:30Z</time>
  <course>293.18</course>
  <speed>0.02</speed>
  <fix>3d</fix>
</trkpt>
<trkpt lat="40.0713772" lon="-105.2298076">
  <ele>1583.0</ele>
  <time>2026-09-02T20:46:30Z</time>
  <course>296.63</course>
  <speed>0.0</speed>
  <fix>3d</fix>
</trkpt>
<trkpt lat="40.0713771" lon="-105.2298078">
  <ele>1582.95</ele>
  <time>2026-09-02T20:46:30Z</time>
  <course>293.18</course>
  <speed>0.02</speed>
  <fix>3d</fix>
</trkpt>
<trkpt lat="40.0713772" lon="-105.2298076">
  <ele>1583.0</ele>
  <time>2026-09-02T20:46:30Z</time>
  <course>296.91</course>
  <speed>0.0</speed>
  <fix>3d</fix>
</trkpt>
<trkpt lat="40.0713771" lon="-105.2298078">
  <ele>1582.95</ele>
  <time>2026-09-02T20:46:30Z</time>
  <course>293.17</course>
  <speed>0.02</speed>
  <fix>3d</fix>
</trkpt>
<trkpt lat="40.0713772" lon="-105.2298076">
  <ele>1583.0</ele>
  <time>2026-09-02T20:46:30Z</time>
  <course>296.91</course>
  <speed>0.0</speed>
  <fix>3d</fix>
</trkpt>
<trkpt lat="40.0713771" lon="-105.2298078">
  <ele>1582.95</ele>
  <time>2026-09-02T20:46:30Z</time>
  <course>293.17</course>
  <speed>0.02</speed>
  <fix>3d</fix>
</trkpt>
<trkpt lat="40.0713772" lon="-105.2298076">
  <ele>1583.0</ele>
  <time>2026-09-02T20:46:30Z</time>
  <course>297.22</course>
  <speed>0.0</speed>
  <fix>3d</fix>
</trkpt>
<trkpt lat="40.0713771" lon="-105.2298078">
  <ele>1582.95</ele>
  <time>2026-09-02T20:46:30Z</time>
  <course>293.17</course>
  <speed>0.02</speed>
  <fix>3d</fix>
</trkpt>
<trkpt lat="40.0713772" lon="-105.2298076">
  <ele>1583.0</ele>
  <time>2026-09-02T20:46:30Z</time>
  <course>297.22</course>
  <speed>0.0</speed>
  <fix>3d</fix>
</trkpt>
<trkpt lat="40.0713771" lon="-105.2298078">
  <ele>1582.95</ele>
  <time>2026-09-02T20:46:30Z</time>
  <course>293.17</course>
  <speed>0.02</speed>
  <fix>3d</fix>
</trkpt>
<trkpt lat="40.0713772" lon="-105.2298076">
  <ele>1583.0</ele>
  <time>2026-09-02T20:46:30Z</time>
  <course>297.56</course>
  <speed>0.0</speed>
  <fix>3d</fix>
</trkpt>
<trkpt lat="40.0713771" lon="-105.2298078">
  <ele>1582.95</ele>
  <time>2026-09-02T20:46:30Z</time>
  <course>293.16</course>
  <speed>0.02</speed>
  <fix>3d</fix>
</trkpt>
<trkpt lat="40.0713772" lon="-105.2298076">
  <ele>1583.0</ele>
  <time>2026-09-02T20:46:30Z</time>
  <course>297.56</course>
  <speed>0.0</speed>
  <fix>3d</fix>
</trkpt>
<trkpt lat="40.0713771" lon="-105.2298078">
  <ele>1582.95</ele>
  <time>2026-09-02T20:46:30Z</time>
  <course>293.16</course>
  <speed>0.02</speed>
  <fix>3d</fix>
</trkpt>
<trkpt lat="40.0713772" lon="-105.2298076">
  <ele>1583.0</ele>
  <time>2026-09-02T20:46:30Z</time>
  <course>297.94</course>
  <speed>0.0</speed>
  <fix>3d</fix>
</trkpt>
<trkpt lat="40.0713771" lon="-105.2298078">
  <ele>1582.95</ele>
  <time>2026-09-02T20:46:30Z</time>
  <course>293.16</course>
  <speed>0.02</speed>
  <fix>3d</fix>
</trkpt>
<trkpt lat="40.0713772" lon="-105.2298076">
  <ele>1583.0</ele>
  <time>2026-09-02T20:46:30Z</time>
  <course>297.94</course>
  <speed>0.0</speed>
  <fix>3d</fix>
</trkpt>
<trkpt lat="40.0713771" lon="-105.2298078">
  <ele>1582.94</ele>
  <time>2026-09-02T20:46:30Z</time>
  <course>293.16</course>
  <speed>0.02</speed>
  <fix>3d</fix>
</trkpt>
<trkpt lat="40.0713772" lon="-105.2298076">
  <ele>1583.0</ele>
  <time>2026-09-02T20:46:30Z</time>
  <course>298.36</course>
  <speed>0.0</speed>
  <fix>3d</fix>
</trkpt>
<trkpt lat="40.0713771" lon="-105.2298078">
  <ele>1582.94</ele>
  <time>2026-09-02T20:46:30Z</time>
  <course>293.16</course>
  <speed>0.02</speed>
  <fix>3d</fix>
</trkpt>
<trkpt lat="40.0713772" lon="-105.2298076">
  <ele>1583.0</ele>
  <time>2026-09-02T20:46:30Z</time>
  <course>298.36</course>
  <speed>0.0</speed>
  <fix>3d</fix>
</trkpt>
<trkpt lat="40.0713771" lon="-105.2298078">
  <ele>1582.94</ele>
  <time>2026-09-02T20:46:30Z</time>
  <course>293.15</course>
  <speed>0.02</speed>
  <fix>3d</fix>
</trkpt>
<trkpt lat="40.0713772" lon="-105.2298076">
  <ele>1583.0</ele>
  <time>2026-09-02T20:46:30Z</time>
  <course>298.82</course>
  <speed>0.0</speed>
  <fix>3d</fix>
</trkpt>
<trkpt lat="40.0713771" lon="-105.2298078">
  <ele>1582.93</ele>
  <time>2026-09-02T20:46:30Z</time>
  <course>293.15</course>
  <speed>0.02</speed>
  <fix>3d</fix>
</trkpt>
<trkpt lat="40.0713772" lon="-105.2298076">
  <ele>1583.0</ele>
  <time>2026-09-02T20:46:30Z</time>
  <course>298.82</course>
  <speed>0.0</speed>
  <fix>3d</fix>
</trkpt>
<trkpt lat="40.0713771" lon="-105.2298078">
  <ele>1582.93</ele>
  <time>2026-09-02T20:46:30Z</time>
  <course>293.15</course>
  <speed>0.02</speed>
  <fix>3d</fix>
</trkpt>
<trkpt lat="40.0713772" lon="-105.2298076">
  <ele>1583.0</ele>
  <time>2026-09-02T20:46:30Z</time>
  <course>299.34</course>
  <speed>0.0</speed>
  <fix>3d</fix>
</trkpt>
<trkpt lat="40.0713771" lon="-105.2298078">
  <ele>1582.93</ele>
  <time>2026-09-02T20:46:30Z</time>
  <course>293.15</course>
  <speed>0.02</speed>
  <fix>3d</fix>
</trkpt>
<trkpt lat="40.0713772" lon="-105.2298076">
  <ele>1583.0</ele>
  <time>2026-09-02T20:46:30Z</time>
  <course>299.34</course>
  <speed>0.0</speed>
  <fix>3d</fix>
</trkpt>
<trkpt lat="40.0713771" lon="-105.2298078">
  <ele>1582.92</ele>
  <time>2026-09-02T20:46:30Z</time>
  <course>293.14</course>
  <speed>0.02</speed>
  <fix>3d</fix>
</trkpt>
<trkpt lat="40.0713772" lon="-105.2298077">
  <ele>1583.0</ele>
  <time>2026-09-02T20:46:30Z</time>
  <course>299.9</course>
  <speed>0.0</speed>
  <fix>3d</fix>
</trkpt>
<trkpt lat="40.0713771" lon="-105.2298078">
  <ele>1582.92</ele>
  <time>2026-09-02T20:46:30Z</time>
  <course>293.14</course>
  <speed>0.02</speed>
  <fix>3d</fix>
</trkpt>
<trkpt lat="40.0713772" lon="-105.2298077">
  <ele>1583.0</ele>
  <time>2026-09-02T20:46:30Z</time>
  <course>299.9</course>
  <speed>0.0</speed>
  <fix>3d</fix>
</trkpt>
<trkpt lat="40.0713771" lon="-105.2298078">
  <ele>1582.92</ele>
  <time>2026-09-02T20:46:30Z</time>
  <course>293.14</course>
  <speed>0.02</speed>
  <fix>3d</fix>
</trkpt>
<trkpt lat="40.0713772" lon="-105.2298077">
  <ele>1583.0</ele>
  <time>2026-09-02T20:46:30Z</time>
  <course>300.52</course>
  <speed>0.0</speed>
  <fix>3d</fix>
</trkpt>
<trkpt lat="40.071377" lon="-105.2298078">
  <ele>1582.91</ele>
  <time>2026-09-02T20:46:30Z</time>
  <course>293.14</course>
  <speed>0.3101612483854165</speed>
  <fix>3d</fix>
</trkpt>
<trkpt lat="40.0713772" lon="-105.2298077">
  <ele>1583.0</ele>
  <time>2026-09-02T20:46:30Z</time>
  <course>300.52</course>
  <speed>0.0</speed>
  <fix>3d</fix>
</trkpt>
<trkpt lat="40.0713767" lon="-105.2298076">
  <ele>1582.9</ele>
  <time>2026-09-02T20:46:30Z</time>
  <course>293.13</course>
  <speed>0.5738466694161429</speed>
  <fix>3d</fix>
</trkpt>
<trkpt lat="40.0713772" lon="-105.2298077">
  <ele>1583.0</ele>
  <time>2026-09-02T20:46:30Z</time>
  <course>301.2</course>
  <speed>0.0</speed>
  <fix>3d</fix>
</trkpt>
<trkpt lat="40.0713761" lon="-105.2298073">
  <ele>1582.88</ele>
  <time>2026-09-02T20:46:30Z</time>
  <course>293.13</course>
  <speed>0.850881895447306</speed>
  <fix>3d</fix>
</trkpt>
<trkpt lat="40.0713772" lon="-105.2298077">
  <ele>1583.0</ele>
  <time>2026-09-02T20:46:30Z</time>
  <course>301.2</course>
  <speed>0.0</speed>
  <fix>3d</fix>
</trkpt>
<trkpt lat="40.0713754" lon="-105.2298068">
  <ele>1582.86</ele>
  <time>2026-09-02T20:46:30Z</time>
  <course>293.13</course>
  <speed>1.1515641536623134</speed>
  <fix>3d</fix>
</trkpt>
<trkpt lat="40.0713772" lon="-105.2298077">
  <ele>1583.0</ele>
  <time>2026-09-02T20:46:30Z</time>
  <course>301.96</course>
  <speed>0.0</speed>
  <fix>3d</fix>
</trkpt>
<trkpt lat="40.0713744" lon="-105.2298063">
  <ele>1582.83</ele>
  <time>2026-09-02T20:46:30Z</time>
  <course>293.12</course>
  <speed>1.4615402833996742</speed>
  <fix>3d</fix>
</trkpt>
<trkpt lat="40.0713772" lon="-105.2298077">
  <ele>1583.0</ele>
  <time>2026-09-02T20:46:30Z</time>
  <course>301.96</course>
  <speed>0.0</speed>
  <fix>3d</fix>
</trkpt>
<trkpt lat="40.0713733" lon="-105.2298057">
  <ele>1582.79</ele>
  <time>2026-09-02T20:46:30Z</time>
  <course>293.12</course>
  <speed>1.7715812146215595</speed>
  <fix>3d</fix>
</trkpt>
<trkpt lat="40.0713772" lon="-105.2298077">
  <ele>1583.0</ele>
  <time>2026-09-02T20:46:30Z</time>
  <course>302.79</course>
  <speed>0.0</speed>
  <fix>3d</fix>
</trkpt>
<trkpt lat="40.0713721" lon="-105.229805">
  <ele>1582.75</ele>
  <time>2026-09-02T20:46:30Z</time>
  <course>293.11</course>
  <speed>2.0631286920597076</speed>
  <fix>3d</fix>
</trkpt>
<trkpt lat="40.0713772" lon="-105.2298077">
  <ele>1583.0</ele>
  <time>2026-09-02T20:46:30Z</time>
  <course>302.79</course>
  <speed>0.0</speed>
  <fix>3d</fix>
</trkpt>
<trkpt lat="40.0713707" lon="-105.2298043">
  <ele>1582.7</ele>
  <time>2026-09-02T20:46:30Z</time>
  <course>293.11</course>
  <speed>2.341644721130855</speed>
  <fix>3d</fix>
</trkpt>
<trkpt lat="40.0713772" lon="-105.2298077">
  <ele>1583.0</ele>
  <time>2026-09-02T20:46:30Z</time>
  <course>303.71</course>
  <speed>0.0</speed>
  <fix>3d</fix>
</trkpt>
<trkpt lat="40.0713693" lon="-105.2298036">
  <ele>1582.65</ele>
  <time>2026-09-02T20:46:30Z</time>
  <course>293.1</course>
  <speed>2.6071632093139083</speed>
  <fix>3d</fix>
</trkpt>
<trkpt lat="40.0713772" lon="-105.2298077">
  <ele>1583.0</ele>
  <time>2026-09-02T20:46:30Z</time>
  <course>303.71</course>
  <speed>0.0</speed>
  <fix>3d</fix>
</trkpt>
<trkpt lat="40.0713678" lon="-105.2298027">
  <ele>1582.59</ele>
  <time>2026-09-02T20:46:30Z</time>
  <course>293.1</course>
  <speed>2.8634245231889737</speed>
  <fix>3d</fix>
</trkpt>
<trkpt lat="40.0713772" lon="-105.2298077">
  <ele>1583.0</ele>
  <time>2026-09-02T20:46:30Z</time>
  <course>304.71</course>
  <speed>0.0</speed>
  <fix>3d</fix>
</trkpt>
<trkpt lat="40.0713664" lon="-105.229802">
  <ele>1582.54</ele>
  <time>2026-09-02T20:46:30Z</time>
  <course>293.09</course>
  <speed>3.1011127035307826</speed>
  <fix>3d</fix>
</trkpt>
<trkpt lat="40.0713772" lon="-105.2298077">
  <ele>1583.0</ele>
  <time>2026-09-02T20:46:30Z</time>
  <course>304.71</course>
  <speed>0.0</speed>
  <fix>3d</fix>
</trkpt>
<trkpt lat="40.0713749" lon="-105.229789">
  <ele>1583.0</ele>
  <time>2026-09-02T20:46:31Z</time>
  <course>263.21</course>
  <speed>0.7829431652425353</speed>
  <fix>3d</fix>
</trkpt>
<trkpt lat="40.0713749" lon="-105.229789">
  <ele>1583.0</ele>
  <time>2026-09-02T20:46:31Z</time>
  <course>0.0</course>
  <speed>0.0</speed>
  <fix>3d</fix>
</trkpt>
<trkpt lat="40.0713749" lon="-105.229789">
  <ele>1583.0</ele>
  <time>2026-09-02T20:46:32Z</time>
  <course>325.65</course>
  <speed>3.120592892384394</speed>
  <fix>3d</fix>
</trkpt>
<trkpt lat="40.0713749" lon="-105.229789">
  <ele>1583.0</ele>
  <time>2026-09-02T20:46:32Z</time>
  <course>0.0</course>
  <speed>0.0</speed>
  <fix>3d</fix>
</trkpt>
<trkpt lat="40.0713749" lon="-105.229789">
  <ele>1582.83</ele>
  <time>2026-09-02T20:46:32Z</time>
  <course>2.32</course>
  <speed>0.0</speed>
  <fix>3d</fix>
</trkpt>
<trkpt lat="40.0713749" lon="-105.229789">
  <ele>1583.0</ele>
  <time>2026-09-02T20:46:32Z</time>
  <course>0.0</course>
  <speed>0.0</speed>
  <fix>3d</fix>
</trkpt>
<trkpt lat="40.0713749" lon="-105.229789">
  <ele>1582.78</ele>
  <time>2026-09-02T20:46:32Z</time>
  <course>3.78</course>
  <speed>0.0</speed>
  <fix>3d</fix>
</trkpt>
<trkpt lat="40.0713749" lon="-105.229789">
  <ele>1583.0</ele>
  <time>2026-09-02T20:46:32Z</time>
  <course>0.0</course>
  <speed>0.0</speed>
  <fix>3d</fix>
</trkpt>
<trkpt lat="40.0713749" lon="-105.229789">
  <ele>1582.78</ele>
  <time>2026-09-02T20:46:32Z</time>
  <course>5.89</course>
  <speed>0.0</speed>
  <fix>3d</fix>
</trkpt>
<trkpt lat="40.0713749" lon="-105.229789">
  <ele>1583.0</ele>
  <time>2026-09-02T20:46:32Z</time>
  <course>0.0</course>
  <speed>0.0</speed>
  <fix>3d</fix>
</trkpt>
<trkpt lat="40.0713749" lon="-105.229789">
  <ele>1583.08</ele>
  <time>2026-09-02T20:46:32Z</time>
  <course>5.82</course>
  <speed>0.0</speed>
  <fix>3d</fix>
</trkpt>
<trkpt lat="40.0713749" lon="-105.229789">
  <ele>1583.0</ele>
  <time>2026-09-02T20:46:32Z</time>
  <course>0.0</course>
  <speed>0.0</speed>
  <fix>3d</fix>
</trkpt>
<trkpt lat="40.0713749" lon="-105.229789">
  <ele>1583.0</ele>
  <time>2026-09-02T20:46:32Z</time>
  <course>337.38</course>
  <speed>2.2157617200412143</speed>
  <fix>3d</fix>
</trkpt>
<trkpt lat="40.0713749" lon="-105.229789">
  <ele>1583.0</ele>
  <time>2026-09-02T20:46:32Z</time>
  <course>0.0</course>
  <speed>0.0</speed>
  <fix>3d</fix>
</trkpt>
<trkpt lat="40.0713749" lon="-105.229789">
  <ele>1583.22</ele>
  <time>2026-09-02T20:46:32Z</time>
  <course>5.94</course>
  <speed>0.0</speed>
  <fix>3d</fix>
</trkpt>
<trkpt lat="40.0713749" lon="-105.229789">
  <ele>1583.0</ele>
  <time>2026-09-02T20:46:32Z</time>
  <course>0.0</course>
  <speed>0.0</speed>
  <fix>3d</fix>
</trkpt>
<trkpt lat="40.0713749" lon="-105.229789">
  <ele>1582.84</ele>
  <time>2026-09-02T20:46:32Z</time>
  <course>5.96</course>
  <speed>0.0</speed>
  <fix>3d</fix>
</trkpt>
<trkpt lat="40.0713749" lon="-105.229789">
  <ele>1583.0</ele>
  <time>2026-09-02T20:46:32Z</time>
  <course>0.0</course>
  <speed>0.0</speed>
  <fix>3d</fix>
</trkpt>
<trkpt lat="40.0713749" lon="-105.229789">
  <ele>1583.15</ele>
  <time>2026-09-02T20:46:32Z</time>
  <course>5.98</course>
  <speed>0.0</speed>
  <fix>3d</fix>
</trkpt>
<trkpt lat="40.0713749" lon="-105.229789">
  <ele>1583.0</ele>
  <time>2026-09-02T20:46:32Z</time>
  <course>0.0</course>
  <speed>0.0</speed>
  <fix>3d</fix>
</trkpt>
<trkpt lat="40.0713749" lon="-105.229789">
  <ele>1582.94</ele>
  <time>2026-09-02T20:46:32Z</time>
  <course>6.0</course>
  <speed>0.0</speed>
  <fix>3d</fix>
</trkpt>
<trkpt lat="40.0713749" lon="-105.229789">
  <ele>1583.0</ele>
  <time>2026-09-02T20:46:32Z</time>
  <course>0.0</course>
  <speed>0.0</speed>
  <fix>3d</fix>
</trkpt>
<trkpt lat="40.0713749" lon="-105.229789">
  <ele>1582.88</ele>
  <time>2026-09-02T20:46:32Z</time>
  <course>6.0</course>
  <speed>0.0</speed>
  <fix>3d</fix>
</trkpt>
<trkpt lat="40.0713749" lon="-105.229789">
  <ele>1583.0</ele>
  <time>2026-09-02T20:46:32Z</time>
  <course>0.0</course>
  <speed>0.0</speed>
  <fix>3d</fix>
</trkpt>
<trkpt lat="40.0713749" lon="-105.229789">
  <ele>1582.96</ele>
  <time>2026-09-02T20:46:32Z</time>
  <course>6.0</course>
  <speed>0.0</speed>
  <fix>3d</fix>
</trkpt>
<trkpt lat="40.0713749" lon="-105.229789">
  <ele>1583.0</ele>
  <time>2026-09-02T20:46:32Z</time>
  <course>0.0</course>
  <speed>0.0</speed>
  <fix>3d</fix>
</trkpt>
<trkpt lat="40.0713749" lon="-105.229789">
  <ele>1582.93</ele>
  <time>2026-09-02T20:46:32Z</time>
  <course>7.66</course>
  <speed>0.0</speed>
  <fix>3d</fix>
</trkpt>
<trkpt lat="40.0713749" lon="-105.229789">
  <ele>1583.0</ele>
  <time>2026-09-02T20:46:32Z</time>
  <course>0.0</course>
  <speed>0.0</speed>
  <fix>3d</fix>
</trkpt>
<trkpt lat="40.0713749" lon="-105.229789">
  <ele>1583.14</ele>
  <time>2026-09-02T20:46:33Z</time>
  <course>7.52</course>
  <speed>0.0</speed>
  <fix>3d</fix>
</trkpt>
<trkpt lat="40.0713749" lon="-105.229789">
  <ele>1583.0</ele>
  <time>2026-09-02T20:46:33Z</time>
  <course>0.0</course>
  <speed>0.0</speed>
  <fix>3d</fix>
</trkpt>
<trkpt lat="40.0713749" lon="-105.229789">
  <ele>1582.94</ele>
  <time>2026-09-02T20:46:33Z</time>
  <course>7.36</course>
  <speed>0.0</speed>
  <fix>3d</fix>
</trkpt>
<trkpt lat="40.0713749" lon="-105.229789">
  <ele>1583.0</ele>
  <time>2026-09-02T20:46:33Z</time>
  <course>0.0</course>
  <speed>0.0</speed>
  <fix>3d</fix>
</trkpt>
<trkpt lat="40.0713749" lon="-105.229789">
  <ele>1582.97</ele>
  <time>2026-09-02T20:46:33Z</time>
  <course>7.21</course>
  <speed>0.0</speed>
  <fix>3d</fix>
</trkpt>
<trkpt lat="40.0713749" lon="-105.229789">
  <ele>1583.0</ele>
  <time>2026-09-02T20:46:33Z</time>
  <course>0.0</course>
  <speed>0.0</speed>
  <fix>3d</fix>
</trkpt>
<trkpt lat="40.0713749" lon="-105.229789">
  <ele>1582.91</ele>
  <time>2026-09-02T20:46:33Z</time>
  <course>7.05</course>
  <speed>0.0</speed>
  <fix>3d</fix>
</trkpt>
<trkpt lat="40.0713749" lon="-105.229789">
  <ele>1583.0</ele>
  <time>2026-09-02T20:46:33Z</time>
  <course>0.0</course>
  <speed>0.0</speed>
  <fix>3d</fix>
</trkpt>
<trkpt lat="40.0713749" lon="-105.229789">
  <ele>1583.25</ele>
  <time>2026-09-02T20:46:33Z</time>
  <course>6.89</course>
  <speed>0.0</speed>
  <fix>3d</fix>
</trkpt>
<trkpt lat="40.0713749" lon="-105.229789">
  <ele>1583.0</ele>
  <time>2026-09-02T20:46:33Z</time>
  <course>0.0</course>
  <speed>0.0</speed>
  <fix>3d</fix>
</trkpt>
<trkpt lat="40.0713611" lon="-105.2297745">
  <ele>1582.06</ele>
  <time>2026-09-02T20:46:33Z</time>
  <course>8.3</course>
  <speed>2.377414562082095</speed>
  <fix>3d</fix>
</trkpt>
<trkpt lat="40.0713749" lon="-105.229789">
  <ele>1583.0</ele>
  <time>2026-09-02T20:46:33Z</time>
  <course>0.0</course>
  <speed>0.0</speed>
  <fix>3d</fix>
</trkpt>
<trkpt lat="40.0713728" lon="-105.2298029">
  <ele>1582.46</ele>
  <time>2026-09-02T20:46:33Z</time>
  <course>11.75</course>
  <speed>4.032728604803452</speed>
  <fix>3d</fix>
</trkpt>
<trkpt lat="40.0713749" lon="-105.229789">
  <ele>1583.0</ele>
  <time>2026-09-02T20:46:33Z</time>
  <course>0.0</course>
  <speed>0.0</speed>
  <fix>3d</fix>
</trkpt>
<trkpt lat="40.0713803" lon="-105.2298156">
  <ele>1582.49</ele>
  <time>2026-09-02T20:46:33Z</time>
  <course>17.44</course>
  <speed>3.559283635789652</speed>
  <fix>3d</fix>
</trkpt>
<trkpt lat="40.0713749" lon="-105.229789">
  <ele>1583.0</ele>
  <time>2026-09-02T20:46:33Z</time>
  <course>0.0</course>
  <speed>0.0</speed>
  <fix>3d</fix>
</trkpt>
<trkpt lat="40.0713839" lon="-105.2298098">
  <ele>1582.75</ele>
  <time>2026-09-02T20:46:34Z</time>
  <course>21.77</course>
  <speed>2.1306337085477645</speed>
  <fix>3d</fix>
</trkpt>
<trkpt lat="40.0713749" lon="-105.229789">
  <ele>1583.0</ele>
  <time>2026-09-02T20:46:34Z</time>
  <course>0.0</course>
  <speed>0.0</speed>
  <fix>3d</fix>
</trkpt>
<trkpt lat="40.0713837" lon="-105.2297984">
  <ele>1582.78</ele>
  <time>2026-09-02T20:46:34Z</time>
  <course>23.77</course>
  <speed>1.0346496991735898</speed>
  <fix>3d</fix>
</trkpt>
<trkpt lat="40.0713749" lon="-105.229789">
  <ele>1583.0</ele>
  <time>2026-09-02T20:46:34Z</time>
  <course>0.0</course>
  <speed>0.0</speed>
  <fix>3d</fix>
</trkpt>
<trkpt lat="40.0713823" lon="-105.2297887">
  <ele>1582.51</ele>
  <time>2026-09-02T20:46:34Z</time>
  <course>24.3</course>
  <speed>1.0208329931972222</speed>
  <fix>3d</fix>
</trkpt>
<trkpt lat="40.0713749" lon="-105.229789">
  <ele>1583.0</ele>
  <time>2026-09-02T20:46:34Z</time>
  <course>0.0</course>
  <speed>0.0</speed>
  <fix>3d</fix>
</trkpt>
<trkpt lat="40.0713819" lon="-105.2297818">
  <ele>1582.02</ele>
  <time>2026-09-02T20:46:34Z</time>
  <course>23.98</course>
  <speed>1.4290206436577464</speed>
  <fix>3d</fix>
</trkpt>
<trkpt lat="40.0713749" lon="-105.229789">
  <ele>1583.0</ele>
  <time>2026-09-02T20:46:34Z</time>
  <course>0.0</course>
  <speed>0.0</speed>
  <fix>3d</fix>
</trkpt>
<trkpt lat="40.0713816" lon="-105.229778">
  <ele>1581.6</ele>
  <time>2026-09-02T20:46:34Z</time>
  <course>23.2</course>
  <speed>1.622498073958795</speed>
  <fix>3d</fix>
</trkpt>
<trkpt lat="40.0713749" lon="-105.229789">
  <ele>1583.0</ele>
  <time>2026-09-02T20:46:34Z</time>
  <course>0.0</course>
  <speed>0.0</speed>
  <fix>3d</fix>
</trkpt>
<trkpt lat="40.0713811" lon="-105.229776">
  <ele>1581.27</ele>
  <time>2026-09-02T20:46:34Z</time>
  <course>22.23</course>
  <speed>1.6397560794215706</speed>
  <fix>3d</fix>
</trkpt>
<trkpt lat="40.0713749" lon="-105.229789">
  <ele>1583.0</ele>
  <time>2026-09-02T20:46:34Z</time>
  <course>0.0</course>
  <speed>0.0</speed>
  <fix>3d</fix>
</trkpt>
<trkpt lat="40.0713795" lon="-105.2297755">
  <ele>1581.26</ele>
  <time>2026-09-02T20:46:34Z</time>
  <course>21.27</course>
  <speed>1.5362942426501507</speed>
  <fix>3d</fix>
</trkpt>
<trkpt lat="40.0713749" lon="-105.229789">
  <ele>1583.0</ele>
  <time>2026-09-02T20:46:34Z</time>
  <course>0.0</course>
  <speed>0.0</speed>
  <fix>3d</fix>
</trkpt>
<trkpt lat="40.0713778" lon="-105.2297751">
  <ele>1581.62</ele>
  <time>2026-09-02T20:46:34Z</time>
  <course>20.41</course>
  <speed>1.4244297104455523</speed>
  <fix>3d</fix>
</trkpt>
<trkpt lat="40.0713749" lon="-105.229789">
  <ele>1583.0</ele>
  <time>2026-09-02T20:46:34Z</time>
  <course>0.0</course>
  <speed>0.0</speed>
  <fix>3d</fix>
</trkpt>
<trkpt lat="40.0713762" lon="-105.2297762">
  <ele>1582.02</ele>
  <time>2026-09-02T20:46:34Z</time>
  <course>319.59</course>
  <speed>1.0829589096544707</speed>
  <fix>3d</fix>
</trkpt>
<trkpt lat="40.0713749" lon="-105.229789">
  <ele>1583.0</ele>
  <time>2026-09-02T20:46:34Z</time>
  <course>0.0</course>
  <speed>0.0</speed>
  <fix>3d</fix>
</trkpt>
<trkpt lat="40.0713672" lon="-105.2297793">
  <ele>1582.1</ele>
  <time>2026-09-02T20:46:34Z</time>
  <course>291.48</course>
  <speed>2.1631458573105977</speed>
  <fix>3d</fix>
</trkpt>
<trkpt lat="40.0713749" lon="-105.229789">
  <ele>1583.0</ele>
  <time>2026-09-02T20:46:34Z</time>
  <course>0.0</course>
  <speed>0.0</speed>
  <fix>3d</fix>
</trkpt>
<trkpt lat="40.071359" lon="-105.2297832">
  <ele>1582.14</ele>
  <time>2026-09-02T20:46:34Z</time>
  <course>283.52</course>
  <speed>2.8339724769305716</speed>
  <fix>3d</fix>
</trkpt>
<trkpt lat="40.0713749" lon="-105.229789">
  <ele>1583.0</ele>
  <time>2026-09-02T20:46:34Z</time>
  <course>0.0</course>
  <speed>0.0</speed>
  <fix>3d</fix>
</trkpt>
<trkpt lat="40.0713561" lon="-105.2297894">
  <ele>1582.21</ele>
  <time>2026-09-02T20:46:34Z</time>
  <course>263.02</course>
  <speed>2.6977953962448673</speed>
  <fix>3d</fix>
</trkpt>
<trkpt lat="40.0713749" lon="-105.229789">
  <ele>1583.0</ele>
  <time>2026-09-02T20:46:34Z</time>
  <course>0.0</course>
  <speed>0.0</speed>
  <fix>3d</fix>
</trkpt>
<trkpt lat="40.0713578" lon="-105.2297953">
  <ele>1582.22</ele>
  <time>2026-09-02T20:46:34Z</time>
  <course>235.68</course>
  <speed>2.205130381632796</speed>
  <fix>3d</fix>
</trkpt>
<trkpt lat="40.0713749" lon="-105.229789">
  <ele>1583.0</ele>
  <time>2026-09-02T20:46:34Z</time>
  <course>0.0</course>
  <speed>0.0</speed>
  <fix>3d</fix>
</trkpt>
<trkpt lat="40.0713631" lon="-105.2298">
  <ele>1582.21</ele>
  <time>2026-09-02T20:46:34Z</time>
  <course>215.19</course>
  <speed>1.657015389186232</speed>
  <fix>3d</fix>
</trkpt>
<trkpt lat="40.0713749" lon="-105.229789">
  <ele>1583.0</ele>
  <time>2026-09-02T20:46:34Z</time>
  <course>0.0</course>
  <speed>0.0</speed>
  <fix>3d</fix>
</trkpt>
<trkpt lat="40.071369" lon="-105.2298028">
  <ele>1582.08</ele>
  <time>2026-09-02T20:46:34Z</time>
  <course>205.9</course>
  <speed>1.45</speed>
  <fix>3d</fix>
</trkpt>
<trkpt lat="40.0713749" lon="-105.229789">
  <ele>1583.0</ele>
  <time>2026-09-02T20:46:34Z</time>
  <course>0.0</course>
  <speed>0.0</speed>
  <fix>3d</fix>
</trkpt>
<trkpt lat="40.0713798" lon="-105.2298006">
  <ele>1581.75</ele>
  <time>2026-09-02T20:46:34Z</time>
  <course>30.92</course>
  <speed>2.4103319273494264</speed>
  <fix>3d</fix>
</trkpt>
<trkpt lat="40.0713749" lon="-105.229789">
  <ele>1583.0</ele>
  <time>2026-09-02T20:46:34Z</time>
  <course>0.0</course>
  <speed>0.0</speed>
  <fix>3d</fix>
</trkpt>
<trkpt lat="40.0713968" lon="-105.2297893">
  <ele>1581.99</ele>
  <time>2026-09-02T20:46:35Z</time>
  <course>45.53</course>
  <speed>4.51</speed>
  <fix>3d</fix>
</trkpt>
<trkpt lat="40.0713749" lon="-105.229789">
  <ele>1583.0</ele>
  <time>2026-09-02T20:46:35Z</time>
  <course>0.0</course>
  <speed>0.0</speed>
  <fix>3d</fix>
</trkpt>
<trkpt lat="40.0714052" lon="-105.229776">
  <ele>1583.02</ele>
  <time>2026-09-02T20:46:35Z</time>
  <course>67.44</course>
  <speed>4.9930852185797905</speed>
  <fix>3d</fix>
</trkpt>
<trkpt lat="40.0713749" lon="-105.229789">
  <ele>1583.0</ele>
  <time>2026-09-02T20:46:35Z</time>
  <course>0.0</course>
  <speed>0.0</speed>
  <fix>3d</fix>
</trkpt>
<trkpt lat="40.0714043" lon="-105.2297668">
  <ele>1584.46</ele>
  <time>2026-09-02T20:46:35Z</time>
  <course>97.82</course>
  <speed>4.383754098943051</speed>
  <fix>3d</fix>
</trkpt>
<trkpt lat="40.0713749" lon="-105.229789">
  <ele>1583.0</ele>
  <time>2026-09-02T20:46:35Z</time>
  <course>0.0</course>
  <speed>0.0</speed>
  <fix>3d</fix>
</trkpt>
<trkpt lat="40.0713969" lon="-105.2297643">
  <ele>1585.92</ele>
  <time>2026-09-02T20:46:35Z</time>
  <course>128.83</course>
  <speed>3.248399605959833</speed>
  <fix>3d</fix>
</trkpt>
<trkpt lat="40.0713749" lon="-105.229789">
  <ele>1583.0</ele>
  <time>2026-09-02T20:46:35Z</time>
  <course>0.0</course>
  <speed>0.0</speed>
  <fix>3d</fix>
</trkpt>
<trkpt lat="40.0713883" lon="-105.2297654">
  <ele>1587.12</ele>
  <time>2026-09-02T20:46:35Z</time>
  <course>149.08</course>
  <speed>2.169239498073</speed>
  <fix>3d</fix>
</trkpt>
<trkpt lat="40.0713749" lon="-105.229789">
  <ele>1583.0</ele>
  <time>2026-09-02T20:46:35Z</time>
  <course>0.0</course>
  <speed>0.0</speed>
  <fix>3d</fix>
</trkpt>
<trkpt lat="40.0713793" lon="-105.2297698">
  <ele>1587.86</ele>
  <time>2026-09-02T20:46:35Z</time>
  <course>159.75</course>
  <speed>1.5297058540778354</speed>
  <fix>3d</fix>
</trkpt>
<trkpt lat="40.0713749" lon="-105.229789">
  <ele>1583.0</ele>
  <time>2026-09-02T20:46:35Z</time>
  <course>0.0</course>
  <speed>0.0</speed>
  <fix>3d</fix>
</trkpt>
<trkpt lat="40.0713714" lon="-105.2297739">
  <ele>1588.39</ele>
  <time>2026-09-02T20:46:35Z</time>
  <course>165.15</course>
  <speed>1.6285576440519385</speed>
  <fix>3d</fix>
</trkpt>
<trkpt lat="40.0713749" lon="-105.229789">
  <ele>1583.0</ele>
  <time>2026-09-02T20:46:35Z</time>
  <course>0.0</course>
  <speed>0.0</speed>
  <fix>3d</fix>
</trkpt>
<trkpt lat="40.0713655" lon="-105.2297781">
  <ele>1588.59</ele>
  <time>2026-09-02T20:46:35Z</time>
  <course>167.76</course>
  <speed>1.921067411623028</speed>
  <fix>3d</fix>
</trkpt>
<trkpt lat="40.0713749" lon="-105.229789">
  <ele>1583.0</ele>
  <time>2026-09-02T20:46:35Z</time>
  <course>0.0</course>
  <speed>0.0</speed>
  <fix>3d</fix>
</trkpt>
<trkpt lat="40.0713628" lon="-105.2297814">
  <ele>1587.52</ele>
  <time>2026-09-02T20:46:35Z</time>
  <course>169.03</course>
  <speed>1.8558555978308227</speed>
  <fix>3d</fix>
</trkpt>
<trkpt lat="40.0713749" lon="-105.229789">
  <ele>1583.0</ele>
  <time>2026-09-02T20:46:35Z</time>
  <course>0.0</course>
  <speed>0.0</speed>
  <fix>3d</fix>
</trkpt>
<trkpt lat="40.0713625" lon="-105.2297843">
  <ele>1585.49</ele>
  <time>2026-09-02T20:46:35Z</time>
  <course>169.65</course>
  <speed>1.808535318980528</speed>
  <fix>3d</fix>
</trkpt>
<trkpt lat="40.0713749" lon="-105.229789">
  <ele>1583.0</ele>
  <time>2026-09-02T20:46:35Z</time>
  <course>0.0</course>
  <speed>0.0</speed>
  <fix>3d</fix>
</trkpt>
<trkpt lat="40.0713613" lon="-105.2297857">
  <ele>1583.91</ele>
  <time>2026-09-02T20:46:35Z</time>
  <course>169.69</course>
  <speed>1.878084130170957</speed>
  <fix>3d</fix>
</trkpt>
<trkpt lat="40.0713749" lon="-105.229789">
  <ele>1583.0</ele>
  <time>2026-09-02T20:46:35Z</time>
  <course>0.0</course>
  <speed>0.0</speed>
  <fix>3d</fix>
</trkpt>
<trkpt lat="40.0713608" lon="-105.2297863">
  <ele>1583.03</ele>
  <time>2026-09-02T20:46:35Z</time>
  <course>118.62</course>
  <speed>1.8853381659532593</speed>
  <fix>3d</fix>
</trkpt>
<trkpt lat="40.0713749" lon="-105.229789">
  <ele>1583.0</ele>
  <time>2026-09-02T20:46:35Z</time>
  <course>0.0</course>
  <speed>0.0</speed>
  <fix>3d</fix>
</trkpt>
<trkpt lat="40.0713528" lon="-105.2297844">
  <ele>1582.91</ele>
  <time>2026-09-02T20:46:35Z</time>
  <course>24.24</course>
  <speed>4.022996395722969</speed>
  <fix>3d</fix>
</trkpt>
<trkpt lat="40.0713749" lon="-105.229789">
  <ele>1583.0</ele>
  <time>2026-09-02T20:46:35Z</time>
  <course>0.0</course>
  <speed>0.0</speed>
  <fix>3d</fix>
</trkpt>
<trkpt lat="40.0713435" lon="-105.2297781">
  <ele>1583.5</ele>
  <time>2026-09-02T20:46:35Z</time>
  <course>22.97</course>
  <speed>5.01853564299388</speed>
  <fix>3d</fix>
</trkpt>
<trkpt lat="40.0713749" lon="-105.229789">
  <ele>1583.0</ele>
  <time>2026-09-02T20:46:35Z</time>
  <course>0.0</course>
  <speed>0.0</speed>
  <fix>3d</fix>
</trkpt>
<trkpt lat="40.0713164" lon="-105.229762">
  <ele>1584.77</ele>
  <time>2026-09-02T20:46:35Z</time>
  <course>22.26</course>
  <speed>6.5108217607303605</speed>
  <fix>3d</fix>
</trkpt>
<trkpt lat="40.0713749" lon="-105.229789">
  <ele>1583.0</ele>
  <time>2026-09-02T20:46:35Z</time>
  <course>0.0</course>
  <speed>0.0</speed>
  <fix>3d</fix>
</trkpt>
<trkpt lat="40.071249" lon="-105.2297241">
  <ele>1585.96</ele>
  <time>2026-09-02T20:46:35Z</time>
  <course>21.66</course>
  <speed>9.258450194281979</speed>
  <fix>3d</fix>
</trkpt>
<trkpt lat="40.0713749" lon="-105.229789">
  <ele>1583.0</ele>
  <time>2026-09-02T20:46:35Z</time>
  <course>0.0</course>
  <speed>0.0</speed>
  <fix>3d</fix>
</trkpt>
<trkpt lat="40.0711539" lon="-105.2296657">
  <ele>1586.98</ele>
  <time>2026-09-02T20:46:36Z</time>
  <course>21.02</course>
  <speed>12.267081967607455</speed>
  <fix>3d</fix>
</trkpt>
<trkpt lat="40.0713749" lon="-105.229789">
  <ele>1583.0</ele>
  <time>2026-09-02T20:46:36Z</time>
  <course>0.0</course>
  <speed>0.0</speed>
  <fix>3d</fix>
</trkpt>
<trkpt lat="40.071038" lon="-105.2295889">
  <ele>1587.61</ele>
  <time>2026-09-02T20:46:36Z</time>
  <course>20.36</course>
  <speed>15.301300598315166</speed>
  <fix>3d</fix>
</trkpt>
<trkpt lat="40.0713749" lon="-105.229789">
  <ele>1583.0</ele>
  <time>2026-09-02T20:46:36Z</time>
  <course>0.0</course>
  <speed>0.0</speed>
  <fix>3d</fix>
</trkpt>
<trkpt lat="40.0708878" lon="-105.2294892">
  <ele>1587.03</ele>
  <time>2026-09-02T20:46:36Z</time>
  <course>19.61</course>
  <speed>18.568502901418842</speed>
  <fix>3d</fix>
</trkpt>
<trkpt lat="40.0713749" lon="-105.229789">
  <ele>1583.0</ele>
  <time>2026-09-02T20:46:36Z</time>
  <course>0.0</course>
  <speed>0.0</speed>
  <fix>3d</fix>
</trkpt>
<trkpt lat="40.0707164" lon="-105.2293757">
  <ele>1585.51</ele>
  <time>2026-09-02T20:46:36Z</time>
  <course>18.87</course>
  <speed>21.78851073387073</speed>
  <fix>3d</fix>
</trkpt>
<trkpt lat="40.0713749" lon="-105.229789">
  <ele>1583.0</ele>
  <time>2026-09-02T20:46:36Z</time>
  <course>0.0</course>
  <speed>0.0</speed>
  <fix>3d</fix>
</trkpt>
<trkpt lat="40.0705153" lon="-105.2292409">
  <ele>1583.68</ele>
  <time>2026-09-02T20:46:36Z</time>
  <course>18.13</course>
  <speed>25.04107425810642</speed>
  <fix>3d</fix>
</trkpt>
<trkpt lat="40.0713749" lon="-105.229789">
  <ele>1583.0</ele>
  <time>2026-09-02T20:46:36Z</time>
  <course>0.0</course>
  <speed>0.0</speed>
  <fix>3d</fix>
</trkpt>
<trkpt lat="40.0713708" lon="-105.2297856">
  <ele>1582.34</ele>
  <time>2026-09-02T20:46:36Z</time>
  <course>17.56</course>
  <speed>1.6198765385053269</speed>
  <fix>3d</fix>
</trkpt>
<trkpt lat="40.0713749" lon="-105.229789">
  <ele>1583.0</ele>
  <time>2026-09-02T20:46:36Z</time>
  <course>0.0</course>
  <speed>0.0</speed>
  <fix>3d</fix>
</trkpt>
<trkpt lat="40.0713632" lon="-105.229779">
  <ele>1581.98</ele>
  <time>2026-09-02T20:46:36Z</time>
  <course>17.38</course>
  <speed>2.89</speed>
  <fix>3d</fix>
</trkpt>
<trkpt lat="40.0713749" lon="-105.229789">
  <ele>1583.0</ele>
  <time>2026-09-02T20:46:36Z</time>
  <course>0.0</course>
  <speed>0.0</speed>
  <fix>3d</fix>
</trkpt>
</trkseg>
</trk>
</gpx>
